TimeEDT,TemperatureF,Dew PointF,Humidity,Sea Level PressureIn,VisibilityMPH,Wind Direction,Wind SpeedMPH,Gust SpeedMPH,PrecipitationIn,Events,Conditions,WindDirDegrees,DateUTC
12:15 AM,70.2,56.3,61,30.12,10.0,SE,5.8,-,N/A,,Clear,130,2012-03-21 04:15:00
12:34 AM,70.2,56.3,61,30.12,10.0,SE,5.8,-,N/A,,Clear,130,2012-03-21 04:34:00
12:54 AM,70.3,56.5,61,30.12,10.0,SE,6.9,-,N/A,,Clear,140,2012-03-21 04:54:00
1:15 AM,70.0,56.3,62,30.12,10.0,SSE,5.8,-,N/A,,Clear,150,2012-03-21 05:15:00
1:34 AM,69.3,56.3,63,30.12,10.0,SSE,4.6,-,N/A,,Clear,150,2012-03-21 05:34:00
1:54 AM,68.9,56.3,64,30.12,10.0,SSE,5.8,-,N/A,,Clear,150,2012-03-21 05:54:00
2:15 AM,69.1,56.3,64,30.13,10.0,SSE,5.8,-,N/A,,Clear,150,2012-03-21 06:15:00
2:34 AM,68.4,56.3,65,30.12,10.0,SSE,6.9,-,N/A,,Clear,150,2012-03-21 06:34:00
2:54 AM,68.0,56.3,66,30.12,10.0,SE,4.6,-,N/A,,Clear,130,2012-03-21 06:54:00
3:54 AM,66.6,55.8,68,30.12,10.0,SE,5.8,-,N/A,,Clear,130,2012-03-21 07:54:00
4:14 AM,66.7,55.8,68,30.12,10.0,SE,5.8,-,N/A,,Clear,130,2012-03-21 08:14:00
4:34 AM,65.8,55.6,69,30.12,10.0,SE,3.5,-,N/A,,Clear,130,2012-03-21 08:34:00
4:55 AM,65.5,55.4,70,30.12,10.0,Calm,Calm,-,N/A,,Clear,0,2012-03-21 08:55:00
5:14 AM,61.9,54.5,77,30.12,10.0,ESE,4.6,-,N/A,,Clear,110,2012-03-21 09:14:00
5:34 AM,65.3,55.0,69,30.12,10.0,ESE,3.5,-,N/A,,Clear,120,2012-03-21 09:34:00
5:55 AM,61.3,54.5,78,30.13,10.0,Calm,Calm,-,N/A,,Clear,0,2012-03-21 09:55:00
6:14 AM,59.5,54.5,83,30.13,10.0,Calm,Calm,-,N/A,,Clear,0,2012-03-21 10:14:00
6:34 AM,59.7,54.1,82,30.14,10.0,Calm,Calm,-,N/A,,Clear,0,2012-03-21 10:34:00
6:54 AM,59.2,53.8,82,30.14,10.0,Calm,Calm,-,N/A,,Clear,0,2012-03-21 10:54:00
7:14 AM,56.7,53.2,88,30.14,10.0,Calm,Calm,-,N/A,,Clear,0,2012-03-21 11:14:00
7:35 AM,58.6,54.1,85,30.14,10.0,Calm,Calm,-,N/A,,Clear,0,2012-03-21 11:35:00
7:54 AM,59.7,53.8,81,30.15,10.0,Calm,Calm,-,N/A,,Clear,0,2012-03-21 11:54:00
8:14 AM,57.7,54.5,89,30.15,10.0,Calm,Calm,-,N/A,,Clear,0,2012-03-21 12:14:00
8:34 AM,61.5,55.4,80,30.15,10.0,Calm,Calm,-,N/A,,Clear,0,2012-03-21 12:34:00
8:54 AM,66.4,55.8,69,30.15,10.0,SE,3.5,-,N/A,,Clear,140,2012-03-21 12:54:00
9:14 AM,68.0,57.6,69,30.16,10.0,South,5.8,-,N/A,,Clear,180,2012-03-21 13:14:00
9:34 AM,69.1,56.3,64,30.16,10.0,SSE,8.1,-,N/A,,Clear,160,2012-03-21 13:34:00
9:54 AM,70.5,56.7,61,30.17,10.0,South,9.2,-,N/A,,Clear,170,2012-03-21 13:54:00
10:15 AM,72.3,57.0,59,30.17,10.0,South,10.4,-,N/A,,Clear,170,2012-03-21 14:15:00
10:34 AM,73.8,57.0,56,30.17,10.0,South,10.4,-,N/A,,Clear,170,2012-03-21 14:34:00
10:54 AM,75.9,57.6,53,30.17,10.0,South,10.4,-,N/A,,Clear,190,2012-03-21 14:54:00
11:15 AM,76.3,57.4,52,30.17,10.0,South,10.4,-,N/A,,Clear,180,2012-03-21 15:15:00
11:34 AM,76.1,57.4,52,30.17,10.0,South,10.4,-,N/A,,Clear,180,2012-03-21 15:34:00
11:54 AM,76.6,58.6,54,30.16,10.0,SSE,6.9,-,N/A,,Clear,160,2012-03-21 15:54:00
12:15 PM,77.5,59.0,53,30.16,10.0,South,4.6,-,N/A,,Clear,170,2012-03-21 16:15:00
12:34 PM,78.3,58.6,51,30.15,10.0,South,8.1,-,N/A,,Clear,170,2012-03-21 16:34:00
12:54 PM,79.2,59.0,50,30.15,10.0,SSE,6.9,-,N/A,,Clear,160,2012-03-21 16:54:00
1:14 PM,79.7,59.5,50,30.14,10.0,SSW,6.9,-,N/A,,Clear,210,2012-03-21 17:14:00
1:34 PM,80.8,59.4,48,30.14,10.0,SSE,6.9,-,N/A,,Clear,160,2012-03-21 17:34:00
1:55 PM,81.3,59.5,47,30.13,10.0,South,5.8,-,N/A,,Clear,180,2012-03-21 17:55:00
2:14 PM,81.5,58.8,46,30.12,10.0,South,4.6,-,N/A,,Clear,180,2012-03-21 18:14:00
2:35 PM,81.7,59.4,47,30.11,10.0,South,4.6,-,N/A,,Clear,180,2012-03-21 18:35:00
2:54 PM,82.0,59.5,46,30.10,10.0,South,6.9,-,N/A,,Clear,190,2012-03-21 18:54:00
3:14 PM,82.4,58.5,44,30.10,10.0,Calm,Calm,-,N/A,,Clear,0,2012-03-21 19:14:00
3:35 PM,82.8,59.5,45,30.08,10.0,Calm,Calm,-,N/A,,Clear,0,2012-03-21 19:35:00
3:54 PM,82.6,59.0,45,30.08,10.0,South,5.8,-,N/A,,Clear,180,2012-03-21 19:54:00
4:14 PM,83.1,59.0,44,30.07,10.0,South,9.2,-,N/A,,Clear,190,2012-03-21 20:14:00
4:35 PM,82.8,58.5,43,30.07,10.0,South,9.2,-,N/A,,Clear,170,2012-03-21 20:35:00
4:54 PM,82.4,58.1,43,30.07,10.0,South,9.2,-,N/A,,Clear,180,2012-03-21 20:54:00
5:14 PM,82.4,58.3,44,30.07,10.0,South,6.9,-,N/A,,Clear,180,2012-03-21 21:14:00
5:34 PM,81.7,58.8,46,30.07,10.0,South,4.6,-,N/A,,Clear,180,2012-03-21 21:34:00
5:54 PM,81.7,57.6,44,30.07,10.0,South,6.9,-,N/A,,Clear,190,2012-03-21 21:54:00
6:15 PM,81.3,57.4,44,30.07,10.0,SSE,4.6,-,N/A,,Clear,160,2012-03-21 22:15:00
6:34 PM,81.0,57.2,44,30.07,10.0,South,6.9,-,N/A,,Clear,170,2012-03-21 22:34:00
6:54 PM,79.7,57.7,47,30.07,10.0,South,6.9,-,N/A,,Clear,170,2012-03-21 22:54:00
7:14 PM,79.3,57.4,47,30.08,10.0,SSE,4.6,-,N/A,,Clear,160,2012-03-21 23:14:00
7:34 PM,79.0,56.5,46,30.08,10.0,Calm,Calm,-,N/A,,Clear,0,2012-03-21 23:34:00
7:55 PM,75.2,57.2,53,30.08,10.0,Calm,Calm,-,N/A,,Clear,0,2012-03-21 23:55:00
8:14 PM,73.6,57.0,56,30.09,10.0,Calm,Calm,-,N/A,,Clear,0,2012-03-22 00:14:00
8:35 PM,71.2,57.2,61,30.09,10.0,Calm,Calm,-,N/A,,Clear,0,2012-03-22 00:35:00
8:54 PM,70.2,58.3,66,30.09,10.0,Calm,Calm,-,N/A,,Clear,0,2012-03-22 00:54:00
9:14 PM,68.9,59.0,71,30.10,10.0,Calm,Calm,-,N/A,,Clear,0,2012-03-22 01:14:00
9:35 PM,67.3,58.8,74,30.10,10.0,Calm,Calm,-,N/A,,Clear,0,2012-03-22 01:35:00
9:54 PM,66.4,58.8,77,30.10,10.0,Calm,Calm,-,N/A,,Clear,0,2012-03-22 01:54:00
10:14 PM,65.3,59.0,80,30.10,10.0,Calm,Calm,-,N/A,,Clear,0,2012-03-22 02:14:00
10:35 PM,64.6,58.5,80,30.10,10.0,Calm,Calm,-,N/A,,Clear,0,2012-03-22 02:35:00
10:54 PM,64.2,58.1,80,30.10,10.0,Calm,Calm,-,N/A,,Clear,0,2012-03-22 02:54:00
11:14 PM,62.1,58.1,87,30.10,10.0,Calm,Calm,-,N/A,,Clear,0,2012-03-22 03:14:00
11:34 PM,68.9,56.5,65,30.10,10.0,East,4.6,-,N/A,,Clear,100,2012-03-22 03:34:00
11:54 PM,68.9,57.0,66,30.10,10.0,ESE,5.8,-,N/A,,Clear,120,2012-03-22 03:54:00